When you browse on this site, cookies collect data to enhance your experience and personalize the content and advertising you see.
Visit our Privacy Policy to learn more. By continuing to use the site, you agree to this use of cookies and data.
  • In Hungary
  • List of Countries
  • For 7 days
  • Water Temperature
  • Satellite Maps
  • Weather Map
  • News
  • Weather Widgets
  • user-avatar
    Login

    Hourly Weather Gavrilovskoe

    Today, 24 January, Thursday

    Time Temperature Precipitation Wind Pressure Humidity
    00:00 -15°C° 0 mm 4 mps 746 mmHg 93%
    01:00 -15°C° 0 mm 4 mps 745 mmHg 92%
    02:00 -13°C° 0 mm 3 mps 745 mmHg 91%
    03:00 -12°C° 0.1 mm 4 mps 745 mmHg 91%
    04:00 -12°C° 0.1 mm 4 mps 744 mmHg 91%
    05:00 -12°C° 0.1 mm 4 mps 744 mmHg 91%
    06:00 -12°C° 0.3 mm 4 mps 744 mmHg 92%
    07:00 -12°C° 0.3 mm 4 mps 744 mmHg 92%
    08:00 -12°C° 0.3 mm 4 mps 744 mmHg 93%
    09:00 -11°C° 0.2 mm 4 mps 744 mmHg 92%
    10:00 -10°C° 0.2 mm 3 mps 744 mmHg 92%
    11:00 -9°C° 0.2 mm 3 mps 744 mmHg 92%
    12:00 -11°C° 0.1 mm 4 mps 744 mmHg 90%
    13:00 -11°C° 0.1 mm 4 mps 745 mmHg 89%
    14:00 -11°C° 0.1 mm 4 mps 745 mmHg 87%
    15:00 -13°C° 0 mm 3 mps 745 mmHg 90%
    16:00 -14°C° 0 mm 3 mps 746 mmHg 92%
    17:00 -16°C° 0 mm 3 mps 747 mmHg 95%
    18:00 -16°C° 0 mm 2 mps 747 mmHg 96%
    19:00 -17°C° 0 mm 2 mps 748 mmHg 96%
    20:00 -18°C° 0 mm 2 mps 749 mmHg 97%
    21:00 -18°C° 0 mm 2 mps 749 mmHg 98%
    22:00 -19°C° 0 mm 2 mps 750 mmHg 98%
    23:00 -20°C° 0 mm 2 mps 750 mmHg 98%

    Tomorrow, 25 January, Friday

    Time Temperature Precipitation Wind Pressure Humidity
    00:00 -20°C° 0 mm 2 mps 751 mmHg 99%
    01:00 -21°C° 0 mm 2 mps 751 mmHg 99%
    02:00 -20°C° 0 mm 1 mps 752 mmHg 99%
    03:00 -20°C° 0 mm 1 mps 752 mmHg 99%
    04:00 -20°C° 0 mm 1 mps 752 mmHg 99%
    05:00 -20°C° 0 mm 1 mps 752 mmHg 99%
    06:00 -20°C° 0 mm 1 mps 753 mmHg 98%
    07:00 -20°C° 0 mm 1 mps 753 mmHg 97%
    08:00 -20°C° 0 mm 1 mps 753 mmHg 97%
    09:00 -19°C° 0 mm 1 mps 753 mmHg 96%
    10:00 -17°C° 0 mm 1 mps 754 mmHg 95%
    11:00 -16°C° 0 mm 1 mps 754 mmHg 94%
    12:00 -15°C° 0 mm 1 mps 754 mmHg 94%
    13:00 -15°C° 0 mm 1 mps 754 mmHg 94%
    14:00 -14°C° 0 mm 1 mps 754 mmHg 95%
    15:00 -15°C° 0 mm 1 mps 755 mmHg 95%
    16:00 -16°C° 0 mm 1 mps 755 mmHg 95%
    17:00 -17°C° 0 mm 1 mps 755 mmHg 95%
    18:00 -17°C° 0 mm 1 mps 754 mmHg 95%
    19:00 -17°C° 0 mm 1 mps 754 mmHg 94%
    20:00 -17°C° 0 mm 1 mps 754 mmHg 94%
    21:00 -17°C° 0 mm 1 mps 754 mmHg 94%
    22:00 -17°C° 0 mm 1 mps 754 mmHg 94%
    23:00 -18°C° 0 mm 2 mps 754 mmHg 93%

    Day after tomorrow, 26 January, Saturday

    Time Temperature Precipitation Wind Pressure Humidity
    00:00 -18°C° 0 mm 2 mps 753 mmHg 93%
    01:00 -18°C° 0 mm 2 mps 753 mmHg 92%
    02:00 -17°C° 0 mm 2 mps 752 mmHg 92%
    03:00 -17°C° 0 mm 2 mps 752 mmHg 92%
    04:00 -17°C° 0 mm 2 mps 751 mmHg 91%
    05:00 -17°C° 0 mm 2 mps 751 mmHg 91%
    06:00 -18°C° 0 mm 3 mps 750 mmHg 90%
    07:00 -17°C° 0 mm 3 mps 749 mmHg 90%
    08:00 -17°C° 0 mm 3 mps 749 mmHg 90%
    09:00 -18°C° 0 mm 4 mps 748 mmHg 89%
    10:00 -17°C° 0 mm 4 mps 747 mmHg 87%
    11:00 -17°C° 0 mm 4 mps 746 mmHg 86%
    12:00 -17°C° 0.1 mm 4 mps 746 mmHg 88%
    13:00 -17°C° 0.1 mm 5 mps 745 mmHg 89%
    14:00 -17°C° 0.1 mm 5 mps 744 mmHg 90%
    15:00 -17°C° 0.3 mm 5 mps 743 mmHg 90%
    16:00 -16°C° 0.3 mm 4 mps 742 mmHg 91%
    17:00 -16°C° 0.3 mm 4 mps 742 mmHg 91%
    18:00 -16°C° 0.2 mm 4 mps 741 mmHg 91%
    19:00 -16°C° 0.2 mm 4 mps 741 mmHg 92%
    20:00 -16°C° 0.2 mm 4 mps 740 mmHg 92%
    21:00 -15°C° 0.2 mm 3 mps 740 mmHg 92%
    22:00 -15°C° 0.2 mm 3 mps 739 mmHg 93%
    23:00 -14°C° 0.2 mm 3 mps 739 mmHg 93%

    27 January, Sunday

    Time Temperature Precipitation Wind Pressure Humidity
    00:00 -14°C° 0.3 mm 3 mps 739 mmHg 93%
    01:00 -14°C° 0.3 mm 3 mps 738 mmHg 94%
    02:00 -14°C° 0.3 mm 3 mps 738 mmHg 94%
    03:00 -13°C° 0.2 mm 3 mps 737 mmHg 94%
    04:00 -13°C° 0.2 mm 3 mps 737 mmHg 94%
    05:00 -13°C° 0.2 mm 3 mps 737 mmHg 94%
    06:00 -13°C° 0.2 mm 3 mps 737 mmHg 94%
    07:00 -13°C° 0.2 mm 3 mps 736 mmHg 94%
    08:00 -10°C° 0.2 mm 2 mps 736 mmHg 95%
    09:00 -10°C° 0.3 mm 2 mps 736 mmHg 94%
    10:00 -9°C° 0.3 mm 2 mps 736 mmHg 94%
    11:00 -9°C° 0.3 mm 2 mps 736 mmHg 94%
    12:00 -8°C° 0.3 mm 2 mps 735 mmHg 94%
    13:00 -8°C° 0.3 mm 2 mps 735 mmHg 94%
    14:00 -8°C° 0.3 mm 2 mps 735 mmHg 94%
    15:00 -8°C° 0.4 mm 2 mps 735 mmHg 95%
    16:00 -8°C° 0.4 mm 2 mps 735 mmHg 96%
    17:00 -8°C° 0.4 mm 2 mps 735 mmHg 97%
    18:00 -8°C° 0.5 mm 2 mps 735 mmHg 97%
    19:00 -8°C° 0.5 mm 2 mps 735 mmHg 97%
    20:00 -8°C° 0.5 mm 2 mps 735 mmHg 97%
    21:00 -8°C° 0.5 mm 2 mps 735 mmHg 97%
    22:00 -8°C° 0.5 mm 2 mps 735 mmHg 97%
    23:00 -8°C° 0.5 mm 2 mps 735 mmHg 97%

    28 January, Monday

    Time Temperature Precipitation Wind Pressure Humidity
    00:00 -10°C° 0.2 mm 3 mps 735 mmHg 96%
    01:00 -10°C° 0.2 mm 3 mps 736 mmHg 95%
    02:00 -12°C° 0.2 mm 3 mps 736 mmHg 94%
    03:00 -13°C° 0 mm 3 mps 736 mmHg 94%
    04:00 -14°C° 0 mm 3 mps 737 mmHg 95%
    05:00 -15°C° 0 mm 3 mps 737 mmHg 95%
    06:00 -16°C° 0 mm 3 mps 738 mmHg 95%
    07:00 -16°C° 0 mm 3 mps 738 mmHg 96%
    08:00 -17°C° 0 mm 3 mps 739 mmHg 96%
    09:00 -17°C° 0 mm 3 mps 739 mmHg 96%
    10:00 -17°C° 0 mm 3 mps 740 mmHg 96%
    11:00 -16°C° 0 mm 2 mps 740 mmHg 95%
    12:00 -16°C° 0 mm 2 mps 741 mmHg 95%
    13:00 -15°C° 0 mm 2 mps 741 mmHg 95%
    14:00 -15°C° 0 mm 2 mps 741 mmHg 95%
    15:00 -16°C° 0 mm 2 mps 742 mmHg 96%
    16:00 -17°C° 0 mm 2 mps 742 mmHg 97%
    17:00 -16°C° 0 mm 1 mps 743 mmHg 98%
    18:00 -16°C° 0 mm 1 mps 743 mmHg 98%
    19:00 -15°C° 0 mm 1 mps 743 mmHg 98%
    20:00 -15°C° 0 mm 1 mps 743 mmHg 98%
    21:00 -15°C° 0 mm 0 mps 743 mmHg 97%
    22:00 -15°C° 0 mm 0 mps 743 mmHg 97%
    23:00 -14°C° 0 mm 0 mps 743 mmHg 97%

    29 January, Tuesday

    Time Temperature Precipitation Wind Pressure Humidity
    00:00 -14°C° 0 mm 0 mps 743 mmHg 97%
    01:00 -14°C° 0 mm 1 mps 743 mmHg 97%
    02:00 -13°C° 0 mm 1 mps 743 mmHg 97%
    03:00 -14°C° 0 mm 1 mps 743 mmHg 97%
    04:00 -16°C° 0 mm 2 mps 743 mmHg 97%
    05:00 -16°C° 0 mm 2 mps 742 mmHg 97%
    06:00 -16°C° 0 mm 2 mps 742 mmHg 97%
    07:00 -17°C° 0 mm 2 mps 742 mmHg 96%
    08:00 -18°C° 0 mm 3 mps 742 mmHg 96%
    09:00 -17°C° 0 mm 3 mps 741 mmHg 95%
    10:00 -17°C° 0 mm 3 mps 741 mmHg 94%
    11:00 -17°C° 0 mm 4 mps 741 mmHg 93%
    12:00 -16°C° 0 mm 4 mps 740 mmHg 92%
    13:00 -15°C° 0 mm 4 mps 740 mmHg 92%
    14:00 -15°C° 0 mm 4 mps 739 mmHg 91%
    15:00 -14°C° 0.1 mm 4 mps 739 mmHg 92%
    16:00 -14°C° 0.1 mm 4 mps 738 mmHg 93%
    17:00 -12°C° 0.1 mm 4 mps 738 mmHg 93%
    18:00 -12°C° 0.3 mm 4 mps 737 mmHg 93%
    19:00 -11°C° 0.3 mm 4 mps 737 mmHg 93%
    20:00 -10°C° 0.3 mm 4 mps 737 mmHg 93%
    21:00 -9°C° 0.4 mm 4 mps 736 mmHg 94%
    22:00 -8°C° 0.4 mm 4 mps 736 mmHg 94%
    23:00 -7°C° 0.4 mm 4 mps 736 mmHg 94%
    Show more